Regional Weather Roundup
Issued by NWS

Home | Current Version | Previous Version | Text Only | Print | Product List | Glossary Off
Versions: 1 2 3 4 5 6 7 8 9 10 11 12 13 14 15 16 17 18 19 20 21 22 23 24 25 26 27 28 29 30 31 32 33 34 35 36 37 38 39 40 41 42 43 44 45 46 47 48 49 50

000
ASUS45 KCYS 242310
RWRWY

WYOMING REGIONAL WEATHER ROUNDUP
NATIONAL WEATHER SERVICE CHEYENNE WY
400 PM MST WED FEB 24 2021

NOTE:  "FAIR" INDICATES FEW OR NO CLOUDS BELOW 12,000 FEET
WITH NO SIGNIFICANT WEATHER AND/OR OBSTRUCTIONS TO VISIBILITY.

WYZ001-250000-
...YELLOWSTONE NATIONAL PARK...

CITY           SKY/WX    TMP DP  RH WIND       PRES   REMARKS
LK YELLOWSTONE   N/A     15   3  59 VRB7      30.16R WCI   5
W YELLOWSTONE  NOT AVBL

$$
WYZ002>013-054>058-071-098>099-250000-
...NORTHERN WYOMING...

CITY           SKY/WX    TMP DP  RH WIND       PRES   REMARKS
JACKSON        MOSUNNY   24  13  62 CALM      30.18R
CODY           PTSUNNY   26  14  60 N9        30.26R WCI  17
GREYBULL       MOSUNNY   31  17  56 NW9       30.26R WCI  23
WORLAND        SUNNY     29  14  53 CALM      30.27R
SHERIDAN       MOSUNNY   31  18  58 NW12      30.28R WCI  22
BUFFALO        CLOUDY    26  17  68 N14       30.23R WCI  14
GILLETTE       CLOUDY    26  23  88 N15       30.24R FOG     WCI  14
HULETT         CLOUDY    30  16  55 NW8       30.24R WCI  23
NEWCASTLE      MOSUNNY   32  16  51 N13       30.24R WCI  22

$$
WYZ014>020-022>026-101>103-250000-
...CENTRAL WYOMING...

CITY           SKY/WX    TMP DP  RH WIND       PRES   REMARKS
BIG PINEY      MOSUNNY   26   4  38 N14       30.13R WCI  14
PINEDALE       PTSUNNY   25   3  39 CALM      30.14R
DUBOIS         PTSUNNY   21  -4  33 W7        30.11R WCI  13
LANDER         MOSUNNY   31   2  29 NE9       30.17R WCI  23
RIVERTON       MOSUNNY   30   3  31 NE13G21   30.18R WCI  20
CASPER         MOSUNNY   30   9  41 NE9       30.19R WCI  22
DOUGLAS        MOSUNNY   32  12  43 N9        30.22R WCI  24

$$
WYZ021-027>030-104>119-250000-
...SOUTHERN WYOMING...

CITY           SKY/WX    TMP DP  RH WIND       PRES   REMARKS
EVANSTON       CLOUDY    20  13  74 N13       30.11R WCI   7
KEMMERER       PTSUNNY   23   9  54 N5        30.12R WCI  17
FORT BRIDGER   LGT SNOW  22  19  89 N10       30.16R VSB 3/4 WCI  11
ROCK SPRINGS   CLOUDY    22  13  68 CALM      30.12R
DIXON          MOSUNNY   28   9  45 NE16      30.11R WCI  16
RAWLINS        CLOUDY    25   6  44 NE7       30.11R WCI  17
SARATOGA       LGT SNOW  23  18  80 E3        30.11S
LARAMIE        CLOUDY    22   9  57 N8        30.09R WCI  12
CHEYENNE       CLOUDY    29   5  36 NE7       30.13R WCI  22
TORRINGTON     PTSUNNY   34  15  46 N10G22    30.20R WCI  26
PINE BLUFFS    MOSUNNY   34   3  27 N12G17    30.16R WCI  25

$$




USA.gov is the U.S. government's official web portal to all federal, state and local government web resources and services.